Location: Altenst�hlen
(53.5567°N, 8.9425°E)
Time: 23:17:45
(UTC+00:00)

Resurs 01 Rocket - Pass Details

Date: 23 October 2019
Orbit: 633 x 645 km, 98.0° (Epoch: 21 November)

Event Time Altitude Azimuth Distance (km) Brightness Sun altitude
Exits shadow 19:53:26 22° 338° (NNW) 1,398 3.8 -33.0°
Drops below altitude 10° 19:55:05 10° 342° (NNW) 2,052 4.7 -33.2°
Sets 19:57:19 0° 344° (NNW) 2,965 5.6 -33.5°
